Registrering Status Plassering
LN-FAW Operativ Kjeller 

Søk
Kontakt informasjon

Follo flyklubb.
Postboks 226, N-1401 Ski
Epost: post@follo-flyklubb.no

Tel: 47 25 54 90
Du er her: Hovedside

Velkommen til Follo flyklubb

 

Follo flyklubb er en flyklubb med primærbase på Ski flyplass. Disse websidene er ment som en informasjonskanal til flyklubbens medlemmer, og andre som måtte være interessert i Follo flyklubbs virksomhet. Har du kommentarer eller bidrag du ønsker å dele med flyklubben, send oss en melding her.

Har noen av flyklubbens medlemmer forslag til turer, aktiviteter eller kurs- og infokvelder dere ønsker at vi deltar på eller avholder, så gi beskjed til styret via epost.

 

Før flyturen: Ta en sjekk på datoer i sertifikatene dine. Husk at det er forskjell på gyldighetsdato for PPL-sertifikatet og klasserettighet, som f.eks. SEP. Her er noen nyttige spørsmål, og litt om rettigheter her.

ENGM 231150Z 18009KT 120V220 CAVOK 17/01 Q1022 NOSIG
ENTO 231150Z 14009KT 110V180 CAVOK 17/03 Q1022 NOSIG
ENRY 231150Z 16004KT 120V210 CAVOK 18/03 Q1022 NOSIG
ENSN 090850Z 20010G22KT 150V240 CAVOK 07/03 Q1000
ENCN 231150Z 08017KT 060V120 CAVOK 14/05 Q1020
ENZV 231150Z 12019KT 090V150 CAVOK 19/03 Q1015 TEMPO 13025G35KT
ENFL 231150Z 24011KT CAVOK 15/01 Q1017
ENFG 220850Z 19007KT CAVOK 06/M03 Q1014
ENNO 231150Z 14009KT 9999 SCT068 18/03 Q1022
 

Leie av LN-FAW

Follo flyklubbs medlemmer har anledning til å leie LN-FAW, booking skjer via MyWebLog. Husk å loggføre turen etter turen.